Wind_Speed
17 17 17 16 15 14 13 11 10 9 8 7 6 5 5 5 6 7 7 8 8 8 9 9 8 8 8 8 7 7 8 9 10 11 11 12 13 14 15 16 16 17 16 16
17 17 16 14 13 12 11 9 8 8 7 6 5 4 4 5 5 6 6 7 8 8 8 8 8 8 8 8 7 8 8 9 10 10 11 12 13 14 15 16 16 17 16 16
16 15 14 13 12 10 10 9 8 7 6 6 5 4 4 4 4 5 6 8 8 8 8 8 7 7 8 8 8 8 8 9 9 10 11 12 12 13 14 15 16 17 17 16
16 14 12 12 12 10 10 9 7 7 6 5 4 3 3 3 3 5 6 7 8 8 8 7 7 8 8 8 8 8 8 9 9 10 11 11 12 13 14 15 16 17 17 16
15 14 14 13 11 10 8 8 7 6 6 5 4 3 2 3 3 4 6 6 7 7 8 7 8 8 8 8 8 8 9 9 9 10 11 11 12 13 14 15 16 17 17 17
16 15 14 13 11 10 8 8 7 6 5 5 3 2 2 2 3 4 5 5 6 7 7 7 7 8 8 8 8 9 9 10 9 10 11 11 12 13 13 14 15 17 17 17
15 14 13 12 11 9 8 7 6 6 5 3 2 2 2 2 3 4 5 6 6 7 8 7 8 8 9 9 9 9 10 10 10 10 11 11 12 12 13 14 15 16 17 16
13 13 12 11 10 9 7 6 5 4 3 3 2 1 2 3 3 4 5 6 6 7 8 8 8 9 9 9 10 10 10 10 11 11 11 11 12 12 13 14 14 15 16 15
11 11 10 9 8 7 5 4 3 2 2 2 1 1 2 4 4 5 6 6 7 8 8 9 9 9 10 10 10 11 11 11 12 12 12 12 12 12 13 13 14 14 15 15
9 8 8 7 6 5 4 3 1 1 1 1 2 2 3 4 6 6 7 7 8 8 9 9 10 10 10 11 11 12 12 13 13 13 13 13 13 12 13 13 13 14 14 14
8 6 6 5 4 3 3 1 1 1 2 2 3 4 5 6 6 7 7 8 8 9 9 10 10 11 11 12 12 13 13 14 14 14 14 14 14 13 13 13 14 14 14 13
7 6 5 4 3 3 2 2 2 3 3 4 5 5 7 7 8 8 9 9 10 10 11 11 12 12 13 13 14 14 14 15 15 15 15 15 15 15 14 14 14 14 13 13
5 5 4 4 3 3 3 4 4 4 5 5 6 7 8 9 10 10 11 12 12 12 13 13 14 14 14 15 15 16 16 16 16 17 17 17 17 16 16 15 15 15 14 13
4 4 4 3 4 4 5 5 5 6 6 7 7 8 9 10 11 12 12 13 14 14 15 16 16 16 16 17 17 18 18 18 18 18 18 18 18 18 18 17 17 16 15 14
4 4 4 4 5 5 6 7 8 8 8 8 9 10 11 12 13 14 14 15 16 16 17 17 18 18 18 19 19 20 20 20 20 20 20 20 20 20 20 19 19 18 17 16
3 4 4 5 6 6 7 8 9 9 10 10 11 12 14 15 15 16 17 17 17 18 19 19 20 20 21 21 21 22 22 22 22 22 22 23 23 22 22 22 21 20 19 18
4 5 5 6 8 9 9 10 11 11 12 13 14 15 16 17 18 19 19 20 19 20 21 22 22 23 23 23 24 24 24 24 25 25 25 25 25 25 25 24 24 23 22 21
5 6 7 8 10 10 11 12 12 13 14 14 16 17 18 19 20 21 22 22 23 23 23 24 25 25 26 26 26 26 27 27 27 27 27 27 27 27 27 27 26 26 24 23
7 8 9 10 12 12 14 14 14 15 16 17 18 19 21 22 23 24 24 25 26 26 26 27 27 28 28 29 29 29 30 30 30 30 30 30 30 30 30 29 28 28 27 26
10 11 12 13 15 15 16 17 17 18 18 20 21 22 24 25 26 26 28 28 29 30 31 31 31 31 31 32 32 32 32 33 33 33 33 33 32 32 32 32 31 30 30 29
14 14 15 17 18 19 19 20 21 22 22 24 24 25 27 28 29 30 31 32 33 34 34 34 35 36 36 36 36 36 36 36 36 36 36 35 35 35 34 34 34 33 32 31
17 18 18 20 21 22 23 23 24 25 27 27 28 30 31 32 33 34 35 36 37 38 39 39 39 40 40 40 40 40 40 40 39 39 39 39 38 38 37 36 36 35 35 34
20 21 22 23 24 25 26 26 27 28 30 31 32 33 35 36 37 38 39 40 41 42 43 43 43 43 44 44 44 43 43 43 42 42 42 42 41 40 39 38 37 37 37 36
24 25 26 27 27 28 29 29 31 32 33 34 35 37 38 40 41 43 43 44 45 46 47 48 48 47 47 47 46 46 46 45 45 45 44 44 43 42 41 40 40 39 38 38
27 29 29 29 30 31 32 33 34 35 36 38 39 41 42 43 45 46 47 48 48 49 50 50 51 50 49 49 48 48 48 48 47 46 46 45 45 45 44 42 41 41 40 40
31 32 32 32 33 34 35 36 37 39 40 41 43 44 45 47 48 49 50 50 50 50 51 51 51 52 51 50 49 49 49 49 48 47 47 47 47 47 47 46 44 44 43 42
Wind_Direction
173 178 182 188 195 196 200 204 213 218 217 213 217 224 237 241 248 261 265 266 271 268 268 262 259 262 267 276 289 298 309 317 322 326 330 333 336 338 339 339 340 339 337 335
162 168 174 180 184 188 195 193 193 195 201 200 205 216 226 233 253 256 261 269 273 271 271 265 261 261 265 275 287 297 308 315 320 326 329 332 335 338 340 342 343 343 341 338
151 158 163 169 173 176 177 178 180 181 176 180 190 203 213 233 259 263 268 272 271 271 271 267 264 265 268 274 284 294 304 311 317 325 330 332 335 337 339 343 345 346 345 342
142 147 154 158 160 165 164 158 156 164 163 160 164 157 186 222 261 272 276 277 275 274 272 269 266 269 271 274 284 293 301 308 315 324 329 331 333 335 338 342 345 346 347 344
134 137 140 144 146 147 149 153 148 145 146 150 154 165 197 231 261 278 281 284 278 276 273 269 270 271 272 275 283 292 299 306 314 320 326 329 331 333 336 339 342 344 346 345
129 131 134 138 140 141 141 146 145 145 147 150 159 189 211 238 272 282 288 292 290 283 280 277 276 273 274 277 282 288 296 303 310 315 320 325 328 331 334 337 340 343 345 346
124 125 128 129 134 139 138 141 142 144 149 155 172 191 235 274 293 296 299 301 299 293 286 282 279 276 275 278 282 287 295 302 306 310 315 320 324 329 331 334 337 341 344 346
123 126 128 129 130 132 134 137 142 148 158 168 189 206 269 293 307 312 312 311 307 300 293 286 282 279 277 280 283 288 293 299 302 306 310 315 320 325 328 332 334 338 343 345
124 126 127 128 130 131 132 137 139 158 176 191 200 268 299 310 315 316 315 313 307 301 297 290 285 284 285 285 287 289 291 294 297 300 305 309 314 319 323 328 331 335 340 343
119 120 121 119 118 124 123 120 127 156 200 280 291 301 304 306 312 311 310 309 307 304 300 295 290 289 289 289 290 293 293 291 293 295 299 303 308 312 317 322 326 331 334 338
110 111 113 113 109 106 106 101 28 333 315 308 313 315 313 312 315 313 309 309 306 304 301 297 293 291 289 288 289 290 293 291 290 291 294 298 301 305 309 313 319 324 327 331
101 100 100 98 90 77 59 18 339 317 313 308 306 308 306 311 312 312 311 309 305 303 302 297 294 293 291 288 287 286 288 288 287 288 291 294 296 298 301 305 309 315 318 320
97 92 83 71 58 36 14 360 345 330 317 309 305 304 304 310 312 310 309 305 303 300 300 298 295 295 294 292 289 287 286 286 284 284 286 289 292 293 295 297 300 305 310 313
81 74 60 42 24 8 356 351 342 332 324 319 314 309 307 308 308 308 305 301 300 298 297 297 296 293 292 292 291 288 286 284 283 282 283 285 287 288 290 292 293 296 300 303
57 47 34 19 3 354 345 339 335 330 326 321 315 310 307 305 305 303 303 301 299 298 296 295 294 293 291 290 290 289 287 285 283 282 281 282 283 284 286 287 288 289 291 293
25 13 2 353 342 337 333 328 324 322 319 314 310 307 307 306 304 303 302 302 299 297 299 296 294 294 292 290 289 288 287 285 284 283 281 280 280 281 282 283 284 284 284 286
344 340 336 330 326 322 322 322 319 317 313 308 306 306 305 303 303 303 302 301 300 297 298 298 295 293 291 290 289 288 286 285 283 282 281 279 279 279 279 279 280 280 280 280
326 328 327 323 320 318 317 317 316 313 310 308 306 306 304 304 305 304 303 300 299 298 297 297 295 294 292 291 290 288 287 285 283 282 281 279 278 277 276 276 276 277 276 276
314 316 317 318 317 317 317 315 311 309 307 307 306 306 305 304 305 304 303 301 300 299 298 297 296 294 292 291 290 288 286 285 283 282 280 279 277 276 275 274 273 273 273 273
305 308 311 312 312 313 313 311 309 306 304 306 306 306 305 303 302 303 302 301 300 300 299 298 296 294 292 290 288 287 286 284 283 281 280 278 277 276 275 273 272 271 271 270
300 303 306 308 308 309 311 309 307 305 305 304 305 305 305 303 302 301 300 299 298 297 297 296 295 293 292 290 289 287 285 283 282 280 279 278 276 275 274 272 270 268 268 267
296 299 301 302 304 305 306 306 305 304 304 303 303 302 302 302 301 300 299 298 298 296 295 295 294 292 291 290 289 287 284 283 281 280 278 277 275 274 272 270 268 267 265 264
293 296 297 300 301 303 304 304 303 303 303 303 302 301 301 301 300 299 298 297 297 296 295 294 294 292 291 290 289 287 284 283 281 280 278 276 274 272 270 268 266 265 263 262
291 293 295 297 299 300 301 302 302 302 302 301 301 300 300 300 299 299 299 297 296 295 295 294 294 292 291 290 289 287 285 283 281 279 277 275 272 270 269 267 265 263 262 260
290 291 293 295 297 297 299 300 300 300 301 300 300 300 299 299 298 298 297 297 296 296 295 295 294 293 292 291 289 287 286 284 280 278 276 274 272 269 267 265 263 261 260 259
288 290 292 294 295 297 299 299 299 300 301 301 300 300 299 299 298 298 297 297 297 296 296 295 294 294 293 292 290 288 286 283 280 277 275 273 270 268 266 263 261 260 259 258
Height
5802 5807 5811 5816 5820 5823 5826 5829 5831 5833 5835 5837 5839 5840 5841 5842 5843 5843 5843 5843 5844 5844 5844 5844 5843 5843 5843 5843 5842 5841 5840 5839 5838 5836 5834 5832 5830 5827 5824 5821 5817 5814 5810 5807
5804 5808 5812 5816 5819 5823 5826 5829 5831 5833 5835 5836 5838 5839 5840 5841 5841 5842 5842 5842 5842 5842 5842 5842 5842 5841 5841 5841 5840 5839 5838 5837 5836 5834 5832 5830 5828 5826 5823 5819 5816 5812 5808 5805
5806 5811 5814 5817 5820 5823 5826 5829 5831 5832 5834 5836 5837 5839 5839 5840 5840 5840 5840 5840 5840 5840 5840 5840 5840 5840 5839 5839 5838 5837 5837 5836 5834 5832 5831 5829 5826 5824 5821 5818 5815 5811 5807 5803
5808 5812 5815 5818 5821 5824 5826 5829 5831 5833 5834 5836 5838 5838 5839 5839 5839 5839 5839 5839 5839 5838 5838 5838 5838 5838 5837 5837 5836 5836 5835 5834 5832 5830 5829 5827 5825 5823 5820 5817 5813 5810 5806 5802
5812 5814 5817 5820 5823 5825 5827 5829 5831 5833 5834 5836 5837 5838 5839 5839 5839 5839 5838 5837 5837 5836 5836 5836 5836 5835 5835 5835 5834 5834 5833 5832 5830 5829 5827 5825 5823 5821 5818 5815 5812 5809 5805 5801
5815 5817 5820 5822 5824 5827 5828 5830 5832 5833 5835 5836 5837 5838 5839 5838 5838 5838 5837 5837 5836 5835 5835 5834 5834 5834 5833 5833 5832 5832 5831 5830 5828 5827 5825 5824 5822 5819 5817 5814 5811 5808 5804 5800
5819 5821 5822 5824 5826 5828 5830 5832 5833 5834 5835 5836 5837 5838 5839 5838 5838 5837 5836 5836 5835 5834 5833 5833 5832 5832 5831 5831 5830 5829 5829 5827 5826 5825 5824 5822 5820 5818 5815 5813 5810 5806 5803 5799
5822 5824 5825 5826 5828 5829 5831 5833 5834 5835 5835 5836 5837 5837 5838 5837 5836 5836 5835 5834 5833 5832 5832 5831 5830 5830 5829 5829 5828 5827 5826 5825 5824 5823 5822 5820 5818 5816 5813 5811 5808 5805 5802 5798
5825 5827 5827 5828 5829 5831 5832 5833 5834 5835 5835 5836 5837 5837 5837 5836 5836 5835 5834 5833 5832 5831 5830 5829 5828 5827 5827 5826 5825 5824 5823 5822 5821 5820 5819 5818 5816 5814 5812 5809 5807 5804 5801 5798
5827 5829 5830 5830 5831 5832 5833 5833 5834 5835 5835 5835 5836 5836 5836 5835 5834 5833 5832 5831 5830 5829 5828 5827 5826 5825 5824 5823 5822 5822 5821 5820 5819 5818 5817 5815 5814 5812 5810 5807 5805 5802 5800 5797
5829 5830 5831 5831 5832 5832 5833 5834 5833 5834 5834 5834 5834 5836 5834 5833 5832 5831 5830 5829 5828 5826 5825 5824 5823 5822 5821 5820 5820 5819 5818 5817 5816 5815 5814 5812 5811 5809 5807 5805 5803 5801 5798 5796
5830 5831 5831 5832 5832 5832 5833 5833 5833 5833 5833 5833 5833 5836 5831 5831 5830 5829 5828 5826 5825 5824 5823 5821 5820 5819 5818 5817 5816 5815 5814 5813 5813 5812 5811 5809 5808 5806 5804 5803 5801 5799 5797 5794
5832 5832 5832 5833 5834 5833 5832 5832 5832 5831 5831 5831 5831 5833 5829 5828 5827 5826 5825 5824 5822 5821 5820 5818 5817 5816 5815 5814 5813 5812 5811 5810 5809 5808 5807 5806 5805 5803 5801 5800 5798 5796 5794 5792
5832 5832 5833 5834 5833 5832 5831 5831 5830 5830 5829 5829 5828 5828 5827 5826 5824 5823 5822 5821 5819 5818 5817 5815 5814 5813 5811 5810 5809 5808 5806 5805 5804 5803 5802 5801 5800 5799 5798 5796 5795 5793 5791 5789
5832 5832 5832 5832 5831 5830 5830 5829 5828 5828 5827 5826 5825 5824 5823 5822 5821 5820 5818 5817 5815 5814 5813 5811 5810 5809 5807 5806 5804 5803 5802 5801 5800 5798 5797 5796 5795 5794 5793 5792 5790 5789 5788 5786
5832 5831 5831 5830 5830 5829 5828 5827 5826 5825 5824 5823 5822 5821 5819 5818 5817 5815 5814 5812 5811 5810 5808 5807 5805 5804 5802 5801 5800 5798 5797 5795 5794 5793 5792 5791 5790 5789 5788 5787 5785 5784 5783 5782
5830 5830 5830 5829 5828 5827 5826 5825 5824 5822 5821 5820 5818 5818 5815 5813 5812 5810 5809 5807 5806 5805 5803 5802 5800 5799 5797 5796 5794 5793 5791 5790 5788 5787 5786 5784 5783 5783 5782 5781 5780 5779 5778 5777
5829 5828 5827 5827 5826 5825 5826 5822 5821 5819 5817 5816 5814 5812 5810 5809 5807 5805 5803 5802 5800 5798 5797 5795 5794 5792 5790 5789 5787 5786 5784 5783 5781 5780 5779 5778 5776 5776 5775 5774 5773 5772 5771 5771
5826 5826 5825 5824 5823 5822 5821 5819 5817 5815 5813 5812 5810 5808 5805 5804 5802 5800 5797 5795 5794 5792 5790 5788 5787 5785 5783 5781 5780 5778 5776 5775 5773 5772 5770 5769 5768 5767 5767 5766 5765 5765 5764 5764
5823 5823 5822 5820 5819 5818 5818 5815 5812 5811 5809 5807 5804 5802 5800 5798 5796 5794 5791 5788 5786 5784 5782 5780 5778 5776 5775 5773 5771 5769 5767 5765 5764 5762 5761 5760 5759 5758 5758 5757 5756 5756 5756 5756
5819 5818 5817 5815 5814 5813 5812 5810 5808 5807 5805 5801 5799 5796 5794 5791 5789 5787 5784 5781 5779 5776 5774 5771 5769 5767 5764 5762 5761 5759 5757 5755 5753 5752 5750 5749 5748 5748 5747 5747 5746 5746 5746 5746
5815 5814 5812 5810 5809 5810 5806 5803 5802 5800 5796 5794 5792 5789 5786 5784 5781 5778 5775 5772 5769 5767 5764 5761 5758 5756 5753 5751 5749 5747 5744 5743 5741 5740 5739 5738 5737 5736 5736 5735 5735 5735 5736 5736
5809 5808 5806 5805 5805 5801 5799 5796 5794 5791 5789 5786 5783 5781 5778 5775 5771 5768 5765 5762 5759 5755 5752 5749 5746 5743 5740 5738 5735 5733 5731 5729 5728 5726 5725 5724 5723 5723 5723 5723 5723 5724 5724 5725
5802 5800 5799 5797 5796 5793 5791 5788 5786 5783 5780 5777 5774 5771 5768 5765 5761 5757 5754 5750 5746 5743 5739 5736 5732 5729 5727 5724 5721 5718 5716 5715 5713 5712 5711 5710 5709 5709 5709 5709 5710 5711 5712 5713
5795 5792 5791 5789 5788 5785 5783 5780 5777 5775 5771 5768 5765 5761 5757 5753 5750 5746 5742 5737 5733 5729 5725 5721 5717 5714 5711 5708 5705 5702 5700 5698 5697 5696 5694 5694 5694 5694 5694 5695 5696 5697 5699 5700
5785 5784 5782 5781 5779 5776 5774 5771 5768 5764 5761 5757 5754 5750 5745 5741 5737 5732 5728 5723 5719 5715 5710 5706 5702 5699 5696 5693 5689 5686 5683 5681 5679 5678 5678 5677 5677 5677 5678 5680 5681 5682 5684 5686